Weather History for Macomb, IL

Change the Weather History Date:

Wednesday, October 23, 2013

  Actual Average (KBRL) Record (KBRL)
Temperature  
Mean Temperature 40 °F 53 °F  
Max Temperature 47 °F 63 °F 88 °F (1899)
Min Temperature 33 °F 43 °F 25 °F (1981)
Degree Days  
Heating Degree Days 25 12  
Month to date heating degree days 210  
Since 1 July heating degree days 281  
Cooling Degree Days 0 0  
Month to date cooling degree days 19  
Year to date cooling degree days 1201  
Moisture  
Dew Point 33 °F    
Average Humidity 76    
Maximum Humidity 92    
Minimum Humidity 49    
Precipitation  
Precipitation 0.00 in 0.10 in 1.59 in (1957)
Month to date precipitation 2.36  
Year to date precipitation 33.13  
Sea Level Pressure  
Sea Level Pressure 30.08 in    
Wind  
Wind Speed 9 mph (WNW)    
Max Wind Speed 15 mph    
Max Gust Speed 20 mph    
Visibility 10 miles    
Events Rain    
T = Trace of Precipitation, MM = Missing Value Source: NWS Daily Summary

Daily Weather History Graph

Daily Weather History Graph

Search for Another Location

Airport:

Trip Planner

Search our weather history database for the weather conditions in past years. The results will help you decide how hot, cold, wet, or windy it might be!

Date:

Astronomy

Oct. 23, 2013 Rise Set
Actual Time 7:22 AM CDT 6:10 PM CDT
Civil Twilight 6:54 AM CDT 6:38 PM CDT
Nautical Twilight 6:22 AM CDT 7:10 PM CDT
Astronomical Twilight 5:51 AM CDT 7:41 PM CDT
Moon 9:41 PM CDT (10/23) 11:40 AM CDT (10/23)
Length of Visible Light 11h 43m
Length of Day
10h 47m
Waning Gibbous, 79% of the Moon is Illuminated
Oct 23
Waning Gibbous
Oct 26
Last Quarter
Nov 3
New
Nov 9
First Quarter
Nov 17
Full

Hourly Weather History & Observations

Time (CDT) Temp. Windchill Dew Point Humidity Pressure Visibility Wind Dir Wind Speed Gust Speed Precip Events Conditions
12:15 AM 40.5 °F 34.6 °F 38.3 °F 92% 30.02 in 10.0 mi WNW 9.2 mph - N/A   Overcast
12:35 AM 40.3 °F 34.4 °F 37.4 °F 89% 30.02 in 10.0 mi WNW 9.2 mph - N/A   Overcast
12:55 AM 40.3 °F 34.4 °F 37.0 °F 88% 30.03 in 10.0 mi NW 9.2 mph - N/A   Overcast
1:15 AM 40.1 °F 34.1 °F 36.7 °F 88% 30.03 in 10.0 mi WNW 9.2 mph - N/A   Overcast
1:35 AM 39.9 °F 34.5 °F 36.5 °F 88% 30.03 in 10.0 mi NW 8.1 mph - N/A   Overcast
1:55 AM 39.6 °F 34.0 °F 36.3 °F 88% 30.03 in 10.0 mi NW 8.1 mph - N/A   Overcast
2:15 AM 39.4 °F 33.2 °F 36.0 °F 88% 30.03 in 10.0 mi WNW 9.2 mph - N/A   Overcast
2:35 AM 39.2 °F 33.0 °F 35.6 °F 87% 30.03 in 10.0 mi WNW 9.2 mph - N/A   Overcast
2:55 AM 39.2 °F 32.5 °F 35.1 °F 85% 30.03 in 10.0 mi WNW 10.4 mph - N/A   Overcast
3:15 AM 38.8 °F 32.1 °F 34.5 °F 84% 30.03 in 10.0 mi WNW 10.4 mph - N/A   Overcast
3:35 AM 38.3 °F 31.4 °F 33.8 °F 84% 30.03 in 10.0 mi WNW 10.4 mph - N/A   Overcast
3:55 AM 37.2 °F 30.6 °F 32.9 °F 84% 30.02 in 10.0 mi NW 9.2 mph - N/A   Overcast
4:15 AM 36.0 °F 29.0 °F 32.0 °F 86% 30.02 in 10.0 mi NW 9.2 mph - N/A   Mostly Cloudy
4:35 AM 35.2 °F 28.1 °F 32.0 °F 88% 30.03 in 10.0 mi WNW 9.2 mph - N/A   Scattered Clouds
4:55 AM 34.7 °F 26.9 °F 32.0 °F 90% 30.03 in 10.0 mi WNW 10.4 mph - N/A   Clear
5:15 AM 34.7 °F 26.9 °F 31.6 °F 89% 30.04 in 10.0 mi WNW 10.4 mph - N/A   Clear
5:35 AM 34.0 °F 26.6 °F 31.3 °F 90% 30.05 in 10.0 mi WNW 9.2 mph - N/A   Clear
5:55 AM 33.8 °F 26.4 °F 31.1 °F 90% 30.05 in 10.0 mi WNW 9.2 mph - N/A   Clear
6:15 AM 33.8 °F 26.4 °F 31.1 °F 90% 30.05 in 10.0 mi NW 9.2 mph - N/A   Clear
6:35 AM 33.3 °F 25.7 °F 31.1 °F 92% 30.06 in 10.0 mi WNW 9.2 mph - N/A   Clear
6:55 AM 33.1 °F 26.1 °F 31.1 °F 92% 30.07 in 10.0 mi WNW 8.1 mph - N/A   Scattered Clouds
7:15 AM 33.8 °F 27.7 °F 31.6 °F 92% 30.07 in 10.0 mi WNW 6.9 mph - N/A   Overcast
7:35 AM 34.7 °F 28.1 °F 32.0 °F 90% 30.07 in 10.0 mi West 8.1 mph - N/A   Overcast
7:55 AM 35.2 °F 29.5 °F 32.4 °F 89% 30.08 in 10.0 mi West 6.9 mph - N/A   Overcast
8:15 AM 35.6 °F 29.2 °F 32.9 °F 90% 30.09 in 10.0 mi West 8.1 mph - N/A   Overcast
8:35 AM 36.0 °F 30.3 °F 33.3 °F 90% 30.10 in 10.0 mi West 6.9 mph - N/A   Overcast
8:55 AM 37.0 °F 31.0 °F 34.0 °F 89% 30.10 in 10.0 mi WNW 8.1 mph - N/A   Overcast
9:15 AM 38.8 °F 31.6 °F 35.6 °F 88% 30.10 in 10.0 mi West 11.5 mph - N/A   Scattered Clouds
9:35 AM 40.5 °F 33.6 °F 35.6 °F 83% 30.10 in 10.0 mi WNW 11.5 mph - N/A   Clear
9:55 AM 41.5 °F 35.4 °F 35.4 °F 79% 30.10 in 10.0 mi WNW 10.4 mph - N/A   Clear
10:15 AM 42.8 °F 36.6 °F 35.1 °F 74% 30.10 in 10.0 mi WNW 11.5 mph - N/A   Clear
10:35 AM 43.2 °F 36.6 °F 35.1 °F 73% 30.11 in 10.0 mi WNW 12.7 mph 16.1 mph N/A   Scattered Clouds
10:55 AM 44.2 °F 38.0 °F 34.3 °F 68% 30.11 in 10.0 mi WNW 12.7 mph - N/A   Scattered Clouds
11:15 AM 44.8 °F 39.0 °F 32.9 °F 63% 30.10 in 10.0 mi WNW 11.5 mph - N/A   Scattered Clouds
11:35 AM 45.5 °F 39.9 °F 31.5 °F 58% 30.11 in 10.0 mi West 11.5 mph 18.4 mph N/A   Scattered Clouds
11:55 AM 46.4 °F 40.4 °F 31.6 °F 56% 30.11 in 10.0 mi West 13.8 mph 17.3 mph N/A   Scattered Clouds
12:15 PM 45.9 °F 39.7 °F 30.9 °F 56% 30.11 in 10.0 mi West 13.8 mph 17.3 mph N/A   Scattered Clouds
12:35 PM 47.1 °F - 30.0 °F 51% 30.10 in 10.0 mi West 12.7 mph 16.1 mph N/A   Mostly Cloudy
12:55 PM 46.4 °F 41.9 °F 30.6 °F 54% 30.10 in 10.0 mi West 9.2 mph 17.3 mph N/A   Overcast
1:15 PM 46.4 °F 40.1 °F 28.9 °F 51% 30.10 in 10.0 mi West 15.0 mph 19.6 mph N/A   Overcast
1:35 PM 45.9 °F 40.4 °F 30.6 °F 55% 30.09 in 10.0 mi West 11.5 mph - N/A   Overcast
1:55 PM 46.6 °F - 29.1 °F 51% 30.08 in 10.0 mi West 11.5 mph - N/A   Overcast
2:15 PM 46.6 °F - 29.5 °F 51% 30.08 in 10.0 mi West 12.7 mph 19.6 mph N/A   Overcast
2:35 PM 47.3 °F - 28.9 °F 49% 30.07 in 10.0 mi West 10.4 mph 18.4 mph N/A   Overcast
2:55 PM 47.7 °F - 29.5 °F 49% 30.07 in 10.0 mi West 11.5 mph - N/A   Overcast
3:15 PM 46.9 °F - 28.8 °F 49% 30.08 in 10.0 mi WNW 10.4 mph 17.3 mph N/A   Overcast
3:35 PM 46.6 °F - 29.1 °F 51% 30.08 in 10.0 mi West 12.7 mph 18.4 mph N/A   Overcast
3:55 PM 46.4 °F 41.1 °F 28.0 °F 49% 30.08 in 10.0 mi West 11.5 mph - N/A   Overcast
4:15 PM 45.7 °F 41.0 °F 28.9 °F 52% 30.08 in 10.0 mi West 9.2 mph 17.3 mph N/A Rain Light Rain
4:35 PM 44.6 °F 38.4 °F 30.0 °F 57% 30.08 in 10.0 mi West 12.7 mph 18.4 mph N/A   Overcast
4:55 PM 43.2 °F 36.6 °F 31.8 °F 64% 30.09 in 10.0 mi West 12.7 mph - N/A Rain Light Rain
5:15 PM 42.1 °F 34.9 °F 32.2 °F 68% 30.10 in 10.0 mi West 13.8 mph 19.6 mph N/A Rain Light Rain
5:35 PM 41.4 °F 33.6 °F 32.9 °F 72% 30.10 in 10.0 mi WNW 15.0 mph - N/A Rain Light Rain
5:55 PM 41.0 °F 35.2 °F 33.3 °F 74% 30.10 in 10.0 mi West 9.2 mph - N/A   Mostly Cloudy
6:15 PM 40.8 °F 35.0 °F 32.4 °F 72% 30.10 in 10.0 mi West 9.2 mph - N/A   Scattered Clouds
6:35 PM 39.9 °F 35.8 °F 32.2 °F 74% 30.10 in 10.0 mi West 5.8 mph - N/A   Scattered Clouds
6:55 PM 40.1 °F 36.9 °F 32.2 °F 73% 30.11 in 10.0 mi West 4.6 mph - N/A   Scattered Clouds
7:15 PM 38.7 °F 35.2 °F 32.0 °F 77% 30.11 in 10.0 mi West 4.6 mph - N/A   Mostly Cloudy
7:35 PM 36.0 °F 30.3 °F 30.9 °F 82% 30.12 in 10.0 mi West 6.9 mph - N/A   Scattered Clouds
7:55 PM 36.1 °F 31.4 °F 31.3 °F 83% 30.12 in 10.0 mi West 5.8 mph - N/A   Clear
8:15 PM 36.0 °F 32.1 °F 31.1 °F 82% 30.13 in 10.0 mi West 4.6 mph - N/A   Mostly Cloudy
8:35 PM 34.0 °F 29.8 °F 30.0 °F 85% 30.13 in 10.0 mi West 4.6 mph - N/A   Scattered Clouds
8:55 PM 36.3 °F 32.5 °F 32.2 °F 85% 30.13 in 10.0 mi West 4.6 mph - N/A   Mostly Cloudy
9:15 PM 38.3 °F 33.9 °F 33.1 °F 81% 30.12 in 10.0 mi West 5.8 mph - N/A   Overcast
9:35 PM 39.2 °F 35.9 °F 33.6 °F 80% 30.12 in 10.0 mi WSW 4.6 mph - N/A   Overcast
9:55 PM 39.0 °F 35.7 °F 33.6 °F 81% 30.12 in 10.0 mi WSW 4.6 mph - N/A   Overcast
10:15 PM 39.4 °F 35.2 °F 34.2 °F 82% 30.12 in 10.0 mi WSW 5.8 mph - N/A   Overcast
10:35 PM 39.6 °F 34.0 °F 34.2 °F 81% 30.12 in 10.0 mi WSW 8.1 mph - N/A   Overcast
10:55 PM 39.7 °F 35.6 °F 34.7 °F 82% 30.12 in 10.0 mi West 5.8 mph - N/A   Overcast
11:15 PM 39.7 °F 35.6 °F 34.2 °F 80% 30.12 in 10.0 mi WSW 5.8 mph - N/A   Overcast
11:35 PM 40.1 °F 34.7 °F 34.9 °F 82% 30.12 in 10.0 mi WSW 8.1 mph - N/A   Overcast
11:55 PM 40.1 °F 34.7 °F 35.4 °F 83% 30.12 in 10.0 mi West 8.1 mph - N/A   Overcast